Temp
61 61 60 60 60 60 60 60 60 61 61 61 61 61 61 61 62 78 76 88 89 72 73 92 92 93 95 89 93 93 76 72 76 79 82 91 88 94 97 90 91 93 90 92 93
61 60 60 60 60 60 60 60 60 60 61 61 61 61 61 61 72 79 86 81 75 74 87 89 86 91 87 87 88 83 75 75 85 87 85 89 88 89 88 88 88 89 93 92 91
61 61 60 60 60 59 59 59 60 60 60 60 60 60 60 63 75 86 76 76 74 77 94 95 94 90 83 87 86 84 77 83 85 89 90 87 87 91 87 83 88 86 90 89 88
61 61 61 60 60 59 59 59 59 60 60 60 60 60 61 73 68 87 76 74 75 92 91 90 89 83 81 79 86 79 86 87 88 90 88 85 89 86 88 88 94 93 93 91 87
60 61 60 60 60 59 59 59 59 59 59 59 59 60 70 74 76 94 76 77 85 88 86 85 84 84 79 83 85 81 85 88 90 88 88 90 86 87 87 93 95 95 93 90 89
59 59 60 60 59 59 59 58 58 58 59 59 60 59 68 62 90 94 95 88 90 86 85 87 85 89 84 83 83 86 86 87 88 87 89 85 86 87 89 93 92 91 90 90 89
58 58 59 59 59 59 59 58 58 58 59 60 60 66 66 69 90 95 96 94 92 89 84 89 90 85 87 81 89 86 79 83 85 86 85 89 80 81 90 92 89 89 90 90 90
58 58 58 58 59 59 59 59 58 59 59 60 61 66 61 84 88 85 89 90 96 96 93 94 94 87 84 87 84 79 79 72 83 86 87 85 71 84 90 89 86 89 89 89 87
58 57 58 58 58 59 58 58 58 59 61 62 62 65 65 83 77 86 92 87 93 94 94 96 91 83 82 74 72 75 67 71 76 87 85 84 75 85 90 88 86 87 88 89 88
57 57 57 57 58 58 57 57 60 61 66 71 73 66 74 73 83 88 92 92 86 87 85 84 82 76 76 72 60 66 69 73 72 81 85 80 78 84 87 87 85 86 87 87 86
57 57 56 57 57 57 58 66 66 61 66 66 69 70 81 87 90 87 92 87 86 82 72 77 70 66 71 74 75 75 73 73 79 85 79 77 78 82 86 86 85 86 86 85 84
56 56 56 56 57 56 59 57 66 70 60 71 73 76 81 87 78 84 93 79 77 70 76 72 66 74 78 78 75 74 72 72 79 85 82 79 78 82 85 84 85 85 85 86 83
56 56 56 56 56 57 59 61 72 75 60 66 74 72 74 81 75 79 85 81 75 70 71 67 72 79 77 75 73 73 71 72 73 80 82 78 73 77 83 87 88 89 88 88 82
56 56 55 55 53 65 64 74 77 77 52 61 69 75 79 79 72 86 90 82 77 70 72 73 79 77 75 74 76 68 79 78 76 72 64 78 61 73 79 81 85 86 86 85 83
56 56 55 54 58 58 66 74 78 71 38 74 74 90 83 74 78 78 89 83 72 73 74 70 74 74 74 75 80 74 82 79 77 72 70 69 64 70 79 76 81 85 87 85 83
55 56 55 58 59 64 69 72 69 48 39 67 83 76 74 74 75 85 79 85 83 76 77 75 85 82 79 84 83 84 79 78 76 71 59 67 65 66 73 77 81 85 87 85 84
55 56 55 62 57 68 69 61 44 39 65 65 73 75 72 70 71 74 72 70 69 63 64 73 75 83 85 78 83 80 72 59 55 56 55 70 66 68 79 83 84 84 84 84 83
54 54 56 61 66 65 58 45 34 51 54 76 77 75 68 74 71 71 71 67 74 72 67 64 62 76 84 79 76 76 71 61 49 52 58 72 62 71 83 86 87 87 86 84 82
52 57 54 61 65 61 44 32 41 50 63 62 67 64 68 72 74 70 70 70 74 75 64 66 66 82 83 85 83 74 68 76 65 67 61 67 72 79 83 82 84 85 84 80 80
52 50 54 65 63 51 38 35 47 58 61 61 53 62 56 67 69 69 68 75 73 78 80 73 65 79 82 86 84 78 81 65 66 51 50 61 65 68 73 78 81 81 81 79 79
50 40 56 66 59 42 33 40 49 57 59 54 54 55 57 56 64 70 69 76 79 78 79 77 71 73 80 75 73 74 72 72 70 67 56 53 62 78 77 78 75 77 81 79 79
44 36 61 64 39 36 34 46 50 53 58 55 56 56 54 58 57 58 69 75 84 81 72 77 72 65 72 82 84 79 74 73 63 59 65 64 64 81 82 82 82 80 81 81 81
43 47 59 49 34 35 45 47 50 51 52 53 52 55 57 54 51 61 67 82 85 80 75 76 67 61 66 75 79 73 76 76 73 70 63 59 64 82 83 83 84 81 81 81 81
45 36 47 47 47 42 42 44 43 53 53 55 50 53 51 50 58 56 63 75 85 84 74 74 68 64 61 68 74 68 73 76 71 63 64 66 70 75 78 80 82 82 82 82 81
46 42 48 38 41 41 39 43 42 40 53 56 51 50 49 46 51 57 58 55 65 77 76 73 62 70 72 76 76 74 72 73 71 71 65 69 71 77 79 81 83 84 83 82 82
39 43 48 44 47 43 43 42 45 48 51 48 46 53 52 47 51 49 52 54 54 58 74 74 63 69 68 74 76 72 74 74 74 74 72 73 72 83 85 85 85 83 83 83 82
52 53 47 42 43 40 42 44 45 48 53 56 53 50 47 49 58 59 61 60 60 56 57 69 67 63 60 71 72 65 73 74 74 77 76 69 75 83 83 84 85 83 83 84 84
MSLP
1018.85 1018.56 1018.15 1017.92 1017.81 1017.50 1016.99 1016.49 1016.53 1016.09 1015.60 1015.48 1014.63 1014.07 1013.39 1013.40 1012.66 1011.13 1009.38 1007.55 1007.32 1008.19 1008.70 1007.85 1007.66 1007.27 1006.67 1006.31 1005.66 1005.48 1004.92 1003.62 1002.64 1001.38 1000.50 1000.32 1000.22 1000.13 1000.29 1000.96 1001.59 1001.98 1002.68 1003.71 1004.40
1018.41 1018.23 1017.90 1017.83 1017.54 1017.04 1016.66 1016.42 1016.55 1015.81 1015.35 1015.31 1014.59 1013.92 1013.26 1012.95 1011.70 1008.72 1006.80 1006.90 1007.09 1007.32 1008.08 1007.12 1006.53 1006.40 1006.08 1005.56 1005.17 1004.75 1004.13 1003.06 1002.38 1001.31 1000.84 1000.63 1000.66 1000.63 1000.64 1000.54 1000.75 1001.35 1002.33 1003.39 1004.19
1018.28 1018.13 1017.77 1017.63 1017.30 1017.07 1016.69 1016.37 1016.09 1015.68 1015.40 1015.06 1014.25 1013.55 1012.95 1012.69 1010.34 1005.97 1005.54 1005.62 1006.31 1006.73 1006.61 1006.29 1005.87 1005.49 1005.32 1004.95 1004.38 1003.90 1003.09 1002.79 1002.11 1001.55 1001.24 1001.06 1000.74 1000.77 1000.25 1000.30 1000.58 1001.28 1001.79 1003.00 1003.94
1018.05 1017.72 1017.47 1017.32 1017.13 1016.71 1016.39 1016.16 1015.85 1015.53 1015.10 1014.73 1014.03 1013.13 1012.62 1011.84 1008.46 1005.57 1005.67 1005.78 1005.98 1006.16 1006.51 1005.77 1005.40 1004.97 1004.12 1003.75 1003.62 1003.11 1002.28 1001.85 1001.47 1001.26 1001.35 1001.08 1000.74 1000.49 1000.29 1000.38 1000.59 1001.00 1001.74 1002.49 1003.16
1017.90 1017.56 1017.36 1017.16 1016.88 1016.50 1016.16 1015.90 1015.68 1015.26 1014.94 1014.64 1014.02 1013.29 1012.29 1009.96 1006.71 1005.47 1006.02 1006.09 1006.18 1006.45 1005.89 1005.31 1004.72 1003.92 1003.27 1002.77 1002.92 1002.28 1001.52 1001.11 1000.90 1001.10 1001.28 1000.57 1000.16 1000.08 1000.07 1000.20 1000.48 1000.92 1001.58 1002.11 1002.68
1017.68 1017.37 1017.06 1016.82 1016.49 1016.11 1015.71 1015.47 1015.24 1015.01 1014.67 1014.15 1013.57 1013.42 1012.20 1008.75 1005.85 1005.40 1005.03 1005.91 1005.42 1005.79 1005.30 1004.89 1004.15 1003.56 1002.96 1002.57 1001.98 1001.53 1001.06 1000.60 1000.81 1000.77 1000.29 999.96 999.74 999.95 999.93 1000.23 1000.45 1000.98 1001.47 1001.91 1002.22
1017.55 1017.15 1016.75 1016.32 1016.05 1015.73 1015.38 1015.02 1014.64 1014.12 1013.58 1013.35 1013.66 1013.11 1010.69 1006.73 1005.22 1004.41 1004.14 1004.00 1004.62 1004.76 1004.45 1004.25 1004.27 1003.71 1002.68 1002.09 1001.79 1001.29 1000.88 1000.43 1000.03 999.90 999.75 999.78 999.31 999.39 999.85 999.84 1000.18 1000.38 1000.78 1001.35 1001.98
1017.27 1016.90 1016.50 1016.13 1015.82 1015.46 1015.03 1014.64 1014.18 1013.75 1013.35 1013.23 1013.30 1012.57 1008.47 1005.85 1005.47 1004.87 1004.41 1003.85 1003.38 1003.32 1003.19 1003.21 1003.25 1003.22 1002.82 1002.40 1001.72 1001.23 1000.94 999.89 999.37 999.15 998.72 998.98 998.58 999.01 999.30 999.11 999.65 999.68 1000.11 1000.62 1001.39
1017.16 1016.77 1016.40 1016.08 1015.71 1015.24 1014.80 1014.37 1013.74 1013.21 1012.82 1012.76 1012.58 1011.09 1006.65 1004.04 1004.08 1002.99 1003.04 1002.87 1002.36 1002.45 1002.55 1002.66 1002.87 1002.53 1002.92 1002.53 1001.63 1000.85 999.94 999.41 998.60 998.12 997.61 997.37 997.94 998.63 998.78 998.63 998.66 998.98 999.41 999.89 1000.54
1017.08 1016.65 1016.26 1015.92 1015.48 1015.06 1014.59 1013.92 1012.08 1012.55 1011.80 1011.42 1010.34 1009.24 1005.37 1002.44 1001.72 1001.82 1001.96 1002.01 1002.27 1002.19 1002.28 1002.34 1002.09 1002.01 1001.69 1001.67 999.74 999.98 999.24 998.74 997.98 997.26 996.57 996.92 997.37 997.76 997.92 997.95 998.12 998.43 998.45 998.94 999.93
1016.96 1016.60 1016.17 1015.72 1015.32 1014.91 1014.43 1012.41 1010.46 1010.44 1009.62 1006.70 1004.90 1003.25 1000.93 1000.49 1000.71 1000.60 1000.47 1001.20 1001.58 1001.58 1001.38 1001.81 1001.42 1000.20 1000.20 1000.07 1000.20 999.62 998.64 997.68 996.75 996.11 997.57 997.18 996.85 996.92 997.10 997.40 997.34 997.37 997.61 998.26 999.30
1016.54 1016.31 1016.00 1015.56 1015.08 1014.76 1014.59 1012.66 1009.03 1008.70 1006.54 1005.21 1003.60 1002.10 1001.35 1000.43 999.96 999.58 999.49 1000.01 1000.50 1000.32 1001.01 1001.14 999.48 999.84 999.91 999.73 999.60 999.10 998.37 997.43 996.72 996.22 996.30 996.26 996.19 996.54 996.76 996.76 996.77 996.76 997.12 997.65 998.84
1016.14 1016.05 1015.78 1015.39 1014.84 1014.00 1012.72 1011.06 1009.70 1008.57 1006.29 1002.97 1001.37 1000.59 1000.56 1000.42 999.13 998.57 998.92 998.88 999.02 999.78 999.62 998.85 998.11 999.41 998.80 998.41 998.31 998.14 997.70 997.38 996.88 996.65 996.59 996.43 996.23 996.32 996.07 995.68 995.64 995.78 996.38 997.34 998.80
1015.61 1015.61 1015.55 1015.42 1014.77 1011.82 1010.13 1008.86 1008.49 1008.19 1005.56 999.64 997.77 996.32 998.01 999.27 997.29 997.72 997.23 998.02 998.18 998.14 998.75 997.68 998.08 997.53 997.48 996.88 997.16 996.80 996.97 996.78 996.73 997.03 996.83 996.79 995.98 995.93 995.70 995.18 994.81 995.21 995.91 996.96 998.51
1015.15 1015.05 1015.12 1015.41 1013.55 1011.84 1010.12 1008.69 1007.92 1007.90 1003.26 994.18 992.89 992.71 993.82 995.03 994.70 994.75 996.34 996.65 996.63 997.09 997.72 995.10 996.11 996.06 995.35 995.58 995.90 995.63 995.88 995.97 996.46 997.04 997.18 997.35 996.99 995.94 995.38 994.53 994.21 994.91 995.47 996.38 997.91
1014.58 1014.50 1014.61 1014.18 1013.47 1011.92 1010.87 1009.83 1009.03 1006.79 999.17 992.91 990.09 991.40 992.92 993.88 994.03 992.96 994.77 995.78 996.47 996.40 995.66 995.30 995.11 994.65 994.25 994.21 994.63 995.14 995.37 995.81 996.61 997.01 996.77 996.90 996.77 995.67 994.75 994.32 994.43 994.82 995.16 996.23 997.98
1013.96 1013.82 1013.96 1013.17 1011.87 1010.92 1010.45 1010.18 1008.42 1003.23 996.65 992.50 990.54 991.10 991.97 992.37 993.44 993.68 993.87 994.58 994.18 994.95 993.81 994.28 993.70 993.36 993.33 993.29 993.51 994.29 994.84 995.70 996.60 996.84 996.49 996.41 995.80 994.63 994.04 994.10 994.35 994.92 995.58 996.73 998.24
1013.29 1013.17 1012.76 1012.41 1011.88 1011.38 1011.52 1010.56 1006.45 1000.21 997.54 991.81 991.22 991.17 991.36 991.57 991.88 992.56 992.51 993.04 993.23 993.15 993.25 992.97 992.42 991.84 991.68 991.67 992.25 993.02 994.55 994.99 995.72 996.18 995.91 994.71 994.46 993.73 993.78 993.94 994.51 995.17 995.95 997.23 998.60
1012.88 1012.22 1011.95 1011.52 1011.24 1011.22 1011.71 1009.25 1004.78 1001.44 997.80 995.93 994.05 992.58 990.91 991.03 990.56 991.78 991.14 990.86 990.95 991.44 991.63 991.31 990.58 991.05 991.01 991.21 991.73 992.51 993.50 994.83 995.60 995.61 995.41 994.61 994.09 993.52 993.30 993.82 994.37 995.06 996.22 997.56 998.96
1012.38 1011.78 1010.68 1010.24 1010.63 1011.07 1010.83 1008.17 1004.59 1002.50 999.99 998.66 996.84 994.51 992.85 990.89 990.35 990.21 990.16 989.30 989.94 990.57 991.08 990.29 990.28 989.71 990.02 990.60 991.09 991.74 993.14 994.47 995.26 995.57 995.35 994.63 993.63 992.77 993.31 993.69 994.23 995.31 996.59 997.96 999.17
1012.28 1011.65 1009.17 1009.28 1009.91 1010.67 1009.07 1006.65 1004.62 1003.78 1001.85 1001.05 999.07 997.11 995.70 994.16 991.70 989.13 989.14 988.77 988.92 989.35 990.46 990.12 989.55 989.12 989.08 989.02 989.90 991.56 991.97 993.15 994.58 995.07 994.89 994.58 993.33 992.22 992.92 993.80 994.88 995.67 996.60 998.12 999.14
1012.32 1011.12 1008.59 1008.64 1010.17 1010.03 1008.72 1006.95 1006.24 1004.41 1003.12 1002.03 1000.87 999.70 998.21 995.94 993.74 991.37 987.91 987.55 987.14 988.39 988.92 988.79 989.08 988.93 987.89 988.44 989.72 990.81 991.63 992.40 993.53 994.27 994.29 993.85 993.36 992.90 993.24 993.79 994.58 995.65 996.77 998.15 998.97
1011.68 1009.87 1009.31 1010.07 1009.39 1009.31 1008.07 1006.98 1005.93 1004.54 1003.38 1002.50 1001.87 1001.03 999.58 998.16 996.03 991.97 989.18 986.90 987.01 987.31 987.42 988.60 989.12 988.84 988.10 988.17 989.03 990.29 991.13 991.92 992.76 993.72 993.66 993.75 992.97 992.89 993.08 993.54 994.36 995.36 996.60 997.96 998.67
1011.94 1010.33 1009.31 1009.79 1009.31 1009.01 1007.98 1006.52 1005.58 1004.68 1003.18 1002.43 1002.81 1001.92 1001.02 999.57 997.20 993.99 991.06 988.11 986.46 986.50 987.31 988.55 988.40 988.46 987.39 987.20 988.42 989.47 990.27 991.05 991.96 992.56 993.18 992.88 992.38 992.32 993.05 993.47 994.05 994.78 995.88 997.21 998.04
1011.82 1010.24 1009.35 1008.98 1008.92 1008.87 1008.70 1007.15 1005.43 1005.20 1002.98 1002.27 1001.79 1001.49 1001.16 999.73 997.76 995.26 994.03 992.59 988.76 986.59 987.03 987.91 988.22 988.26 988.24 987.86 987.76 988.51 989.57 990.33 990.66 991.50 992.06 992.42 992.11 991.87 992.37 993.13 993.41 994.21 995.38 996.45 997.56
1011.94 1010.60 1009.67 1009.15 1008.53 1008.11 1007.21 1006.14 1004.71 1003.69 1002.63 1001.67 1001.63 1000.51 1000.52 999.97 998.70 997.62 996.94 995.45 992.86 989.53 987.32 987.41 988.02 988.64 988.10 987.98 987.19 987.51 988.39 989.48 989.92 990.51 991.44 991.76 991.54 991.58 991.67 992.24 992.61 993.52 994.72 995.81 996.90
1011.30 1010.98 1010.64 1009.29 1008.51 1007.76 1006.47 1005.67 1004.61 1004.08 1002.19 1001.51 1001.01 1000.46 1000.27 1000.21 999.28 998.83 998.01 996.77 994.91 993.24 990.40 987.32 987.20 988.07 987.68 987.71 987.25 986.44 986.89 988.03 988.96 989.48 990.12 990.39 991.05 991.22 991.10 991.33 991.88 993.01 994.08 994.99 995.89
Wind_Speed
12 12 13 13 13 13 14 15 15 15 15 16 16 16 16 16 20 8 15 12 15 17 3 12 17 19 19 20 20 18 14 16 22 21 14 14 13 10 7 7 11 5 5 7 10
12 14 14 14 14 14 14 15 16 16 16 16 16 16 15 16 12 20 14 19 12 16 12 20 20 20 17 20 17 17 15 23 22 20 14 17 14 17 16 12 11 12 10 10 11
13 14 14 16 16 14 14 15 16 16 17 17 18 17 17 16 13 11 8 15 19 19 21 21 20 21 23 20 22 21 20 21 24 20 16 19 17 17 14 10 8 7 0 16 12
14 13 14 15 16 16 16 16 17 17 18 19 19 18 21 6 9 6 5 6 13 19 19 23 24 25 25 24 23 25 26 24 25 18 19 19 22 18 11 9 9 0 1 13 15
15 16 15 14 14 15 15 16 17 17 17 17 16 15 11 12 16 14 10 8 11 16 23 24 27 26 27 25 24 28 26 25 19 14 23 24 22 18 12 9 5 3 7 7 6
16 16 16 16 15 14 15 16 16 16 17 18 16 16 8 21 15 19 18 12 12 18 22 23 24 24 26 26 27 24 25 22 17 25 23 22 17 15 19 10 4 7 8 11 10
14 16 17 16 16 17 17 16 17 19 21 20 15 10 14 25 13 18 19 22 18 20 20 21 23 27 23 28 25 24 26 23 22 18 22 20 19 16 19 12 16 12 13 11 7
15 14 15 16 17 17 19 19 20 21 23 21 15 10 14 12 22 30 29 24 19 22 19 15 19 24 26 23 24 24 26 22 22 22 25 22 18 15 16 14 16 14 11 13 13
17 17 16 17 18 18 19 20 24 26 23 17 8 10 18 12 24 30 25 25 19 18 14 17 21 20 20 21 21 21 18 26 24 23 24 21 17 16 17 16 14 11 11 10 9
18 17 16 17 18 17 18 22 27 18 12 11 13 12 19 22 22 24 26 25 21 18 19 21 18 19 19 18 22 19 23 22 23 23 22 14 17 15 18 19 7 18 14 11 9
18 17 17 17 16 15 15 13 8 9 13 16 16 19 12 15 21 24 19 24 23 21 22 21 16 23 25 27 26 25 23 24 23 17 8 16 22 16 12 14 18 15 9 7 10
17 18 18 18 17 16 12 11 19 16 13 28 33 28 27 21 13 15 15 23 27 27 22 23 26 27 27 24 28 27 26 23 20 18 15 15 14 13 14 17 19 17 13 9 13
15 15 18 18 17 14 16 24 22 26 13 23 29 34 31 28 26 21 24 23 24 27 27 27 26 27 28 25 26 26 25 21 23 17 16 15 14 13 20 19 15 12 5 4 15
16 12 14 15 12 10 16 18 19 10 10 17 26 28 34 28 36 28 24 24 22 28 30 31 26 28 29 27 26 25 25 25 18 15 13 14 13 13 15 17 12 5 8 10 16
17 15 12 9 15 12 15 18 9 4 10 9 34 12 22 35 10 34 31 28 27 27 24 30 29 29 28 28 27 22 23 20 14 15 15 15 13 13 15 18 6 1 6 13 16
17 14 11 11 13 15 16 15 5 9 17 11 11 26 25 31 35 9 36 30 26 25 28 28 24 30 31 26 26 25 22 13 12 12 13 15 16 13 16 4 4 3 1 13 15
18 15 13 11 14 10 9 8 9 17 10 12 21 25 25 28 32 32 32 32 27 27 29 26 32 30 29 29 23 24 14 11 11 12 11 18 19 15 8 9 2 3 10 13 14
15 12 11 13 13 9 4 7 18 21 36 10 19 24 26 24 29 35 27 27 31 31 14 23 24 34 27 30 25 22 17 12 15 11 17 21 16 5 6 6 2 2 8 13 13
10 9 9 12 14 5 4 13 22 27 18 29 30 30 24 25 22 31 35 30 31 32 26 22 29 23 32 23 24 21 23 17 18 17 12 11 11 10 11 8 9 9 10 13 11
6 4 10 14 15 3 6 17 24 30 37 34 30 21 20 19 28 32 31 30 31 33 25 23 18 28 30 25 23 23 19 17 13 16 15 12 15 5 12 6 11 10 7 12 12
5 2 9 16 5 4 9 21 26 29 33 30 29 28 26 26 26 29 31 30 32 32 31 26 16 20 24 27 22 19 20 18 13 15 12 10 10 9 10 12 11 8 12 12 13
2 3 4 12 7 3 10 19 20 27 30 28 25 25 27 25 23 19 27 32 28 30 34 32 11 16 25 26 26 23 23 17 11 16 10 11 4 10 9 9 11 12 13 14 15
4 6 2 4 5 8 15 22 25 26 27 27 22 23 25 25 14 15 23 28 34 32 30 26 20 13 19 22 24 23 23 20 14 9 14 12 11 10 11 11 7 14 16 14 14
4 4 3 6 2 10 16 21 20 19 27 22 20 24 22 23 21 18 23 17 28 30 33 22 19 22 16 17 22 27 24 23 19 14 14 15 16 15 12 9 10 13 18 16 15
4 5 5 5 7 8 12 20 22 19 25 16 22 20 20 21 24 18 17 21 25 23 25 22 27 21 24 24 27 26 26 25 24 19 19 16 17 11 13 11 11 13 16 17 16
3 4 5 9 11 13 13 12 21 20 17 19 17 19 18 21 21 20 23 20 14 21 16 20 23 22 24 27 24 28 27 26 25 23 22 21 17 13 11 19 14 16 14 15 17
3 4 6 7 9 10 10 9 7 14 16 14 16 17 16 20 19 20 21 21 25 22 24 16 20 23 20 23 25 24 27 26 20 21 22 20 15 14 12 10 8 17 14 14 16
Wind_Direction
341 340 340 338 336 336 340 341 334 336 338 330 333 333 334 323 300 238 243 238 220 173 232 197 213 226 222 230 236 242 254 260 270 286 309 312 315 327 294 194 262 191 178 108 126
335 334 336 331 332 334 336 335 328 333 334 329 330 331 330 325 294 275 251 234 169 161 202 214 208 221 230 230 240 235 246 257 270 287 314 317 309 298 304 243 225 189 180 149 159
318 322 330 327 327 328 330 329 327 327 327 325 330 332 326 317 284 266 359 208 176 172 213 228 223 219 230 240 232 236 247 255 272 294 307 300 298 284 281 296 276 17 18 159 186
303 306 314 319 321 325 327 324 323 321 324 323 327 333 318 268 260 67 55 103 159 186 219 232 233 232 226 235 242 249 250 252 257 279 302 277 278 274 288 289 281 89 276 168 189
293 300 300 298 306 313 314 313 313 316 314 315 322 333 318 235 241 259 130 136 173 204 219 225 233 222 239 239 241 253 257 259 273 289 265 263 260 282 275 285 300 288 224 224 218
311 297 293 292 294 298 301 304 306 303 302 308 320 319 244 256 255 264 251 180 186 205 221 224 237 242 243 247 253 254 259 267 266 255 263 269 265 260 264 252 231 262 259 240 222
319 316 302 295 297 297 299 301 302 302 306 308 309 291 259 246 275 279 273 213 216 197 218 222 232 249 252 249 256 264 265 270 258 258 257 271 263 247 275 228 264 243 234 234 267
315 315 320 314 303 301 301 302 299 296 297 294 289 270 256 260 240 255 266 273 229 238 239 247 230 243 257 271 261 256 260 258 260 253 252 235 250 261 249 244 259 242 245 238 218
320 314 312 312 308 302 299 297 290 286 285 276 255 216 263 247 230 240 241 235 239 220 234 235 235 239 238 247 256 245 251 253 258 249 252 237 235 236 259 282 246 234 244 252 215
311 316 309 308 307 302 302 290 277 284 242 218 248 227 242 245 237 225 223 229 229 236 236 243 226 235 223 223 232 235 239 237 252 260 263 217 242 241 235 247 251 269 243 235 215
308 305 315 310 306 308 309 300 218 198 224 213 197 213 267 214 229 218 210 214 228 231 225 225 223 224 224 223 237 243 249 245 251 255 217 235 237 240 258 275 286 285 271 237 181
300 306 304 308 309 304 290 262 264 329 285 228 252 235 246 275 253 228 206 206 208 221 217 216 222 224 230 225 230 242 251 260 274 285 292 289 269 281 288 269 264 262 264 255 148
287 293 300 305 307 282 249 253 270 285 276 264 238 235 237 236 241 231 212 207 210 211 214 220 223 222 234 224 229 233 242 253 261 275 276 282 271 265 262 268 263 252 222 249 139
290 282 290 306 290 268 263 242 232 259 273 253 216 240 223 223 241 228 220 210 216 213 216 228 224 222 225 230 221 232 231 239 252 274 274 287 294 287 298 275 257 246 205 169 149
294 275 276 265 307 291 345 332 338 204 264 233 213 185 194 199 176 210 215 205 211 210 211 224 220 228 219 221 232 232 238 242 236 246 257 267 269 278 289 279 241 146 230 177 151
295 278 262 258 238 273 284 304 270 227 235 242 226 185 192 199 215 220 196 221 213 221 226 230 230 226 232 229 219 234 237 246 255 263 254 251 257 269 266 19 65 343 257 124 143
293 277 244 260 267 279 323 272 215 229 238 253 183 173 196 194 208 226 189 200 208 209 224 219 227 231 232 228 219 222 218 223 223 235 253 250 245 243 287 303 353 319 134 136 137
292 267 238 246 254 265 289 241 227 229 240 278 215 184 199 212 200 211 186 202 209 207 207 219 218 221 215 229 219 202 207 228 223 225 243 243 232 252 105 96 88 74 73 120 140
296 263 251 234 240 220 217 224 227 246 274 242 289 283 200 215 212 203 220 201 202 205 214 206 227 208 227 208 221 197 213 215 254 268 288 268 233 203 172 170 197 190 132 128 142
284 273 244 227 225 136 215 237 249 250 265 289 294 320 313 237 223 193 202 215 207 205 217 234 214 226 207 212 206 223 192 207 228 243 266 282 279 248 137 193 131 117 132 132 144
272 283 259 218 178 182 223 221 238 257 277 287 280 297 307 302 295 211 209 221 201 204 213 227 246 210 206 204 194 204 229 199 226 221 231 248 266 132 148 112 117 144 133 147 153
111 253 354 164 175 247 243 244 267 273 282 290 292 288 287 301 306 298 220 215 205 208 201 216 225 241 210 200 199 208 216 204 212 219 257 261 288 90 103 127 122 122 139 155 160
271 276 94 30 208 234 252 254 257 265 272 267 280 270 284 307 305 288 265 221 219 193 207 202 224 233 234 204 184 211 217 218 218 214 211 233 247 159 161 143 151 149 141 163 165
297 300 181 203 238 282 271 273 284 296 281 261 268 271 274 275 276 278 291 292 207 218 203 186 223 222 223 205 177 194 214 215 213 219 220 238 251 139 152 164 190 155 149 166 171
249 262 311 287 273 295 320 280 276 285 292 236 259 268 265 275 281 273 340 341 319 250 191 186 212 223 229 235 194 195 204 221 216 211 222 222 242 206 173 188 209 156 158 167 177
288 307 334 291 280 277 255 274 270 274 284 298 291 244 252 265 273 313 322 325 289 338 220 186 209 220 217 230 233 202 201 213 225 213 212 230 235 237 190 191 196 157 163 177 175
265 279 303 289 291 296 264 282 291 306 291 251 264 277 288 283 284 293 304 291 286 288 296 194 196 199 224 216 238 215 199 202 217 226 208 216 221 242 245 215 195 143 158 192 178